GONETS-M 22 (47229 NORAD) Tracking and Keplerian Element Data
This shows tracking and keplerian element data for the satellite.
Feedback or suggestion? Click here.
Element | Value |
Catalog | 47229 |
Name | GONETS-M 22 |
Epoch Orbit | 1119 |
Epoch Day | 62.25601218 |
Epoch Year | 2021 |
RAAN | 63.1529 |
Inclination | 82.4998 |
Eccentricity | 0.0022959 |
Argument of Perigee | 71.1484 |
Mean Anonmoly | 289.0599 |
Mean Motion | 12.42916388 |
Decay Rate | 0.00020022 |
L1 | 1 47229U 20091C 21062.25601218 .00020022 00000-0 14407+0 0 9993 |
L2 | 2 47229 82.4998 63.1529 0022959 71.1484 289.0599 12.42916388 11192 |
Live tracking and technical data element details for GONETS-M 22 (NORAD 47229). GONETS-M 22 can be tracked NOW for your location showing map with azimuth and elevation plus other details from your city location.
Track the satellite on the map from your city or location and see movement details for azimuth, elevation, latitude, longitude, range, height, and movement on the map or in text.
IsCatalogInMostPopularTable: catalog: 47229, numindb: 38
Update: records affected: 1
GetName: 47229 GONETS-M 22
Hit Count: updated at: Fri, 05 Mar 2021 06:48:19 GMT